• en France
  • Liste des pays
  • À 7 jours
  • Température de l'eau
  • Carte satellitaire
  • Carte météo
  • Widgets météo
  • user-avatar
    Se connecter

    Météo par heure à Uncukul

    Ce jour, 21 Août, Mardi

    Heure Température Précipitation Vent Pression Humidité
    00:00 +17°C° 0 mm 2 m/s 695 mmHg 74%
    01:00 +16°C° 0 mm 2 m/s 695 mmHg 74%
    02:00 +16°C° 0 mm 2 m/s 695 mmHg 73%
    03:00 +16°C° 0 mm 3 m/s 695 mmHg 74%
    04:00 +16°C° 0 mm 3 m/s 695 mmHg 74%
    05:00 +17°C° 0 mm 3 m/s 695 mmHg 73%
    06:00 +17°C° 0 mm 2 m/s 695 mmHg 72%
    07:00 +19°C° 0 mm 2 m/s 695 mmHg 65%
    08:00 +23°C° 0 mm 2 m/s 695 mmHg 57%
    09:00 +25°C° 0 mm 3 m/s 696 mmHg 50%
    10:00 +26°C° 0 mm 3 m/s 696 mmHg 49%
    11:00 +27°C° 0 mm 3 m/s 696 mmHg 47%
    12:00 +28°C° 0 mm 4 m/s 696 mmHg 46%
    13:00 +28°C° 0,1 mm 4 m/s 695 mmHg 48%
    14:00 +28°C° 0,1 mm 4 m/s 695 mmHg 50%
    15:00 +27°C° 0 mm 4 m/s 695 mmHg 54%
    16:00 +26°C° 0 mm 3 m/s 695 mmHg 59%
    17:00 +25°C° 0 mm 3 m/s 695 mmHg 64%
    18:00 +24°C° 0 mm 2 m/s 695 mmHg 69%
    19:00 +23°C° 0 mm 2 m/s 694 mmHg 72%
    20:00 +21°C° 0 mm 2 m/s 694 mmHg 75%
    21:00 +19°C° 0 mm 2 m/s 694 mmHg 77%
    22:00 +19°C° 0 mm 2 m/s 694 mmHg 75%
    23:00 +19°C° 0 mm 2 m/s 694 mmHg 72%

    Demain, 22 Août, Mercredi

    Heure Température Précipitation Vent Pression Humidité
    00:00 +18°C° 0 mm 2 m/s 693 mmHg 70%
    01:00 +18°C° 0 mm 2 m/s 693 mmHg 66%
    02:00 +18°C° 0 mm 2 m/s 693 mmHg 63%
    03:00 +18°C° 0 mm 2 m/s 693 mmHg 60%
    04:00 +18°C° 0 mm 2 m/s 693 mmHg 59%
    05:00 +19°C° 0 mm 2 m/s 693 mmHg 58%
    06:00 +19°C° 0 mm 2 m/s 693 mmHg 57%
    07:00 +21°C° 0 mm 2 m/s 694 mmHg 54%
    08:00 +24°C° 0 mm 1 m/s 694 mmHg 50%
    09:00 +26°C° 0 mm 1 m/s 694 mmHg 46%
    10:00 +27°C° 0 mm 2 m/s 694 mmHg 46%
    11:00 +28°C° 0 mm 2 m/s 694 mmHg 46%
    12:00 +29°C° 0 mm 2 m/s 694 mmHg 45%
    13:00 +28°C° 0,3 mm 2 m/s 694 mmHg 48%
    14:00 +28°C° 0,3 mm 2 m/s 694 mmHg 51%
    15:00 +28°C° 0,3 mm 2 m/s 693 mmHg 53%
    16:00 +27°C° 0,4 mm 2 m/s 693 mmHg 58%
    17:00 +26°C° 0,4 mm 2 m/s 693 mmHg 63%
    18:00 +25°C° 0,4 mm 1 m/s 693 mmHg 68%
    19:00 +24°C° 0,2 mm 1 m/s 693 mmHg 71%
    20:00 +23°C° 0,2 mm 1 m/s 694 mmHg 74%
    21:00 +21°C° 0,2 mm 2 m/s 694 mmHg 76%
    22:00 +20°C° 0,2 mm 2 m/s 694 mmHg 76%
    23:00 +20°C° 0,2 mm 2 m/s 694 mmHg 77%

    Après-demain, 23 Août, Jeudi

    Heure Température Précipitation Vent Pression Humidité
    00:00 +19°C° 0,2 mm 2 m/s 694 mmHg 77%
    01:00 +19°C° 0 mm 2 m/s 694 mmHg 77%
    02:00 +19°C° 0 mm 2 m/s 694 mmHg 77%
    03:00 +19°C° 0 mm 2 m/s 694 mmHg 77%
    04:00 +19°C° 0 mm 2 m/s 694 mmHg 76%
    05:00 +19°C° 0 mm 2 m/s 694 mmHg 75%
    06:00 +19°C° 0 mm 2 m/s 694 mmHg 74%
    07:00 +21°C° 0 mm 2 m/s 695 mmHg 67%
    08:00 +24°C° 0 mm 2 m/s 695 mmHg 60%
    09:00 +26°C° 0 mm 2 m/s 696 mmHg 52%
    10:00 +27°C° 0 mm 2 m/s 696 mmHg 50%
    11:00 +27°C° 0 mm 3 m/s 696 mmHg 48%
    12:00 +28°C° 0 mm 3 m/s 696 mmHg 46%
    13:00 +28°C° 0,1 mm 3 m/s 696 mmHg 47%
    14:00 +28°C° 0,1 mm 3 m/s 696 mmHg 48%
    15:00 +27°C° 0,1 mm 3 m/s 696 mmHg 49%
    16:00 +26°C° 0 mm 2 m/s 696 mmHg 54%
    17:00 +25°C° 0 mm 2 m/s 695 mmHg 59%
    18:00 +24°C° 0 mm 2 m/s 695 mmHg 64%
    19:00 +23°C° 0 mm 2 m/s 695 mmHg 70%
    20:00 +21°C° 0 mm 1 m/s 696 mmHg 75%
    21:00 +20°C° 0 mm 1 m/s 696 mmHg 81%
    22:00 +20°C° 0 mm 1 m/s 696 mmHg 81%
    23:00 +20°C° 0 mm 1 m/s 696 mmHg 81%

    24 Août, Vendredi

    Heure Température Précipitation Vent Pression Humidité
    00:00 +18°C° 0 mm 2 m/s 696 mmHg 81%
    01:00 +18°C° 0 mm 2 m/s 696 mmHg 80%
    02:00 +18°C° 0 mm 2 m/s 696 mmHg 79%
    03:00 +18°C° 0 mm 2 m/s 695 mmHg 79%
    04:00 +18°C° 0 mm 2 m/s 696 mmHg 78%
    05:00 +18°C° 0 mm 2 m/s 696 mmHg 78%
    06:00 +18°C° 0 mm 2 m/s 696 mmHg 77%
    07:00 +20°C° 0 mm 2 m/s 696 mmHg 72%
    08:00 +22°C° 0 mm 3 m/s 696 mmHg 66%
    09:00 +25°C° 0 mm 3 m/s 696 mmHg 60%
    10:00 +26°C° 0 mm 3 m/s 696 mmHg 59%
    11:00 +26°C° 0 mm 4 m/s 696 mmHg 58%
    12:00 +27°C° 0 mm 4 m/s 696 mmHg 57%
    13:00 +27°C° 0,1 mm 4 m/s 696 mmHg 58%
    14:00 +27°C° 0,1 mm 4 m/s 695 mmHg 59%
    15:00 +27°C° 0,1 mm 4 m/s 695 mmHg 60%
    16:00 +26°C° 0,1 mm 4 m/s 695 mmHg 64%
    17:00 +25°C° 0,1 mm 3 m/s 695 mmHg 68%
    18:00 +22°C° 0,1 mm 3 m/s 694 mmHg 72%
    19:00 +21°C° 0,1 mm 3 m/s 695 mmHg 75%
    20:00 +20°C° 0,1 mm 2 m/s 695 mmHg 78%
    21:00 +19°C° 0,1 mm 2 m/s 695 mmHg 80%
    22:00 +19°C° 0 mm 2 m/s 694 mmHg 78%
    23:00 +18°C° 0 mm 2 m/s 694 mmHg 76%

    25 Août, Samedi

    Heure Température Précipitation Vent Pression Humidité
    00:00 +18°C° 0 mm 2 m/s 694 mmHg 74%
    01:00 +18°C° 0 mm 2 m/s 694 mmHg 73%
    02:00 +18°C° 0 mm 2 m/s 693 mmHg 72%
    03:00 +18°C° 0 mm 2 m/s 693 mmHg 71%
    04:00 +18°C° 0 mm 2 m/s 693 mmHg 70%
    05:00 +18°C° 0 mm 2 m/s 693 mmHg 69%
    06:00 +19°C° 0 mm 1 m/s 693 mmHg 69%
    07:00 +21°C° 0 mm 2 m/s 694 mmHg 62%
    08:00 +24°C° 0 mm 2 m/s 694 mmHg 55%
    09:00 +26°C° 0 mm 2 m/s 694 mmHg 48%
    10:00 +27°C° 0 mm 3 m/s 694 mmHg 46%
    11:00 +28°C° 0 mm 3 m/s 694 mmHg 45%
    12:00 +29°C° 0 mm 4 m/s 694 mmHg 43%
    13:00 +28°C° 0,2 mm 4 m/s 694 mmHg 45%
    14:00 +28°C° 0,2 mm 4 m/s 694 mmHg 46%
    15:00 +28°C° 0,2 mm 4 m/s 694 mmHg 48%
    16:00 +27°C° 0,1 mm 4 m/s 694 mmHg 53%
    17:00 +25°C° 0,1 mm 3 m/s 694 mmHg 58%
    18:00 +24°C° 0,1 mm 3 m/s 693 mmHg 63%
    19:00 +22°C° 0 mm 3 m/s 693 mmHg 67%
    20:00 +20°C° 0 mm 2 m/s 693 mmHg 72%
    21:00 +19°C° 0 mm 2 m/s 694 mmHg 76%
    22:00 +19°C° 0 mm 2 m/s 693 mmHg 75%
    23:00 +19°C° 0 mm 2 m/s 693 mmHg 75%

    26 Août, Dimanche

    Heure Température Précipitation Vent Pression Humidité
    00:00 +19°C° 0 mm 2 m/s 693 mmHg 74%
    01:00 +18°C° 0 mm 2 m/s 693 mmHg 73%
    02:00 +18°C° 0 mm 2 m/s 693 mmHg 71%
    03:00 +18°C° 0 mm 2 m/s 693 mmHg 69%
    04:00 +18°C° 0 mm 2 m/s 693 mmHg 67%
    05:00 +18°C° 0 mm 2 m/s 693 mmHg 64%
    06:00 +19°C° 0 mm 2 m/s 693 mmHg 61%
    07:00 +21°C° 0 mm 3 m/s 694 mmHg 53%
    08:00 +25°C° 0 mm 3 m/s 694 mmHg 46%
    09:00 +27°C° 0 mm 3 m/s 694 mmHg 38%
    10:00 +28°C° 0 mm 4 m/s 694 mmHg 37%
    11:00 +29°C° 0 mm 4 m/s 694 mmHg 36%
    12:00 +30°C° 0 mm 5 m/s 694 mmHg 35%
    13:00 +30°C° 0 mm 5 m/s 693 mmHg 36%
    14:00 +29°C° 0 mm 5 m/s 693 mmHg 38%
    15:00 +29°C° 0 mm 5 m/s 693 mmHg 39%
    16:00 +28°C° 0 mm 4 m/s 692 mmHg 45%
    17:00 +26°C° 0 mm 4 m/s 692 mmHg 51%
    18:00 +25°C° 0 mm 3 m/s 692 mmHg 56%
    19:00 +24°C° 0 mm 3 m/s 692 mmHg 57%
    20:00 +21°C° 0 mm 3 m/s 692 mmHg 58%
    21:00 +20°C° 0 mm 3 m/s 692 mmHg 58%
    22:00 +20°C° 0 mm 3 m/s 692 mmHg 56%
    23:00 +20°C° 0 mm 2 m/s 691 mmHg 54%
    Voir plus